星链-37354(STARLINK-37354)

导读

STARLINK-37354(NORAD编号68743)是美国SpaceX公司星链(Starlink)卫星互联网星座的一员,属于低轨通信卫星。星链星座旨在构建全球覆盖的空间互联网通信系统,该卫星运行在近地轨道,依托低轨特性实现低延迟、高速率的数据传输,为全球用户提供宽带互联网接入服务。作为星链大规模组网中的卫星,它与同星座其他卫星协同,补充全球通信覆盖,助力SpaceX完成全球卫星互联网部署目标,目前正常在轨运行,服务星座通信网络。

基本信息
目录编号:
68743
目录名称:
STARLINK-37354
国际标识:
2026-082R
轨道中心:
EARTH
卫星名称:
星链-37354
卫星全名:
星链-37354(STARLINK-37354)
卫星状态:
在轨 (已飞行142 天)
发射日期:
2026-04-15 UTC
国别 :
美国 (US)
星等 :
--
轨道信息
数据来源 国际轨道数据
星历时间: 2026-09-04T09:55:18+0800
10小时前
查看轨道信息
半长轴: 6843.673km
偏心率: 0.0001733
轨道倾角: 97.284°
近地点辐角 88.280°
升交点赤经 109.535°
平近点角 271.865°
近地点: 464.349km
远地点: 466.723km
周期: 93.906分钟
每日圈数: 15.334477
详细信息
固有亮度:
5
最大亮度:
2.5
卫星平台:
Starlink V1.0
覆盖范围:
全球
运营商:
太空探索技术公司
运营商所在国:
美国
制造商(研发单位):
太空探索技术公司
制造商所在国:
美国
使用方式:
暂无
卫星简介
Starlink 计划是 SpaceX 推出的全球卫星互联网项目,通过发射低轨道卫星,为全球尤其是偏远地区提供高速、低延迟的互联网服务。自 2019 年起,Starlink 已部署数千颗卫星,旨在缩小全球数字鸿沟,推动互联网普及。该项目还为军事、航空等行业提供通信支持,带来广泛经济效益。
2D轨道图
3D轨道图
轨道高度分析图
轨道倾角分析图
轨道综合分析图
查看轨道综合分析图
交会数据列表
事件ID 空间交会对象 最接近时刻(TCA) 交会距离 交会风险概率(CRP) 交会风险指数(CRI) 操作
CDM_260901-114705-719606-874322
2026-09-01T
11:47:42+0000
2.521 km
极远距离
1.727149E-6 低风险 0.4
CDM_260906-085105-246306-874321
2026-09-06T
08:51:01+0000
2.955 km
极远距离
1.354137E-6 低风险 0.38
CDM_260904-082405-342406-874321
2026-09-04T
08:24:59+0000
2.799 km
极远距离
1.237131E-6 低风险 0.37
CDM_260906-015504-602906-874321
2026-09-06T
01:55:09+0000
2.985 km
极远距离
1.201597E-6 低风险 0.37
CDM_260906-061205-015906-874321
2026-09-06T
06:12:15+0000
2.638 km
极远距离
1.111651E-6 低风险 0.36